AAL3321 KCLT-KMSY

Flight info

Callsign AAL3321
Flight time 1h 39m
Altitude 34000
Route ESTRR5 IPTAY DCT CHOPZ DCT MGM DCT MVC DCT SJI DCT GPT MNSTR1
Aircraft A321/M-VGDW/C

Departure

Time 2026-05-05 23:57
Airport Charlotte Douglas International Airport (KCLT)

Arrival

Time 2026-05-06 01:36
Airport Louis Armstrong New Orleans International Airport (KMSY)
Time Latitude Longitude Altitude Speed Heading
2026-05-05 23:24 35.21828 -80.94296 733 ft 0 kts 97°
2026-05-05 23:44 35.21831 -80.94324 733 ft 4 kts 97°
2026-05-05 23:45 35.21835 -80.94357 732 ft 4 kts 101°
2026-05-05 23:45 35.21839 -80.94378 732 ft 2 kts 128°
2026-05-05 23:45 35.21848 -80.94388 730 ft 2 kts 173°
2026-05-05 23:45 35.21857 -80.94389 730 ft 0 kts 174°
2026-05-05 23:49 35.21856 -80.94389 730 ft 1 kts 174°
2026-05-05 23:49 35.21842 -80.94387 732 ft 3 kts 174°
2026-05-05 23:50 35.21804 -80.94383 732 ft 8 kts 175°
2026-05-05 23:50 35.21742 -80.94377 732 ft 10 kts 175°
2026-05-05 23:50 35.21669 -80.94371 732 ft 11 kts 176°
2026-05-05 23:50 35.21600 -80.94411 732 ft 12 kts 234°
2026-05-05 23:51 35.21571 -80.94512 731 ft 13 kts 263°
2026-05-05 23:51 35.21564 -80.94625 732 ft 13 kts 265°
2026-05-05 23:51 35.21557 -80.94740 732 ft 14 kts 266°
2026-05-05 23:51 35.21551 -80.94855 732 ft 13 kts 266°
2026-05-05 23:52 35.21586 -80.94942 733 ft 12 kts 309°
2026-05-05 23:52 35.21629 -80.95018 733 ft 11 kts 336°
2026-05-05 23:52 35.21706 -80.95029 733 ft 11 kts 355°
2026-05-05 23:52 35.21787 -80.95036 734 ft 12 kts 356°
2026-05-05 23:53 35.21872 -80.95044 734 ft 12 kts 356°
2026-05-05 23:53 35.21959 -80.95051 734 ft 13 kts 356°
2026-05-05 23:53 35.22051 -80.95059 734 ft 14 kts 356°
2026-05-05 23:53 35.22147 -80.95067 734 ft 14 kts 356°
2026-05-05 23:54 35.22247 -80.95076 734 ft 15 kts 356°
2026-05-05 23:54 35.22350 -80.95085 733 ft 15 kts 356°
2026-05-05 23:54 35.22455 -80.95094 733 ft 15 kts 356°
2026-05-05 23:54 35.22562 -80.95104 733 ft 16 kts 356°
2026-05-05 23:55 35.22671 -80.95113 733 ft 16 kts 356°
2026-05-05 23:55 35.22732 -80.95182 735 ft 12 kts 271°
2026-05-05 23:55 35.22725 -80.95268 738 ft 7 kts 256°
2026-05-05 23:55 35.22696 -80.95311 741 ft 8 kts 202°
2026-05-05 23:56 35.22609 -80.95308 741 ft 27 kts 176°
2026-05-05 23:56 35.22178 -80.95270 742 ft 95 kts 175°
2026-05-05 23:56 35.21334 -80.95198 739 ft 150 kts 176°
2026-05-05 23:56 35.20186 -80.95098 1183 ft 164 kts 176°
2026-05-05 23:57 35.19058 -80.94969 1973 ft 162 kts 176°
2026-05-05 23:57 35.17940 -80.94838 2664 ft 165 kts 177°
2026-05-05 23:57 35.16743 -80.94704 2931 ft 184 kts 177°
2026-05-05 23:57 35.15389 -80.94558 3070 ft 206 kts 178°
2026-05-05 23:58 35.13922 -80.94855 3177 ft 227 kts 207°
2026-05-05 23:58 35.12713 -80.96192 3496 ft 246 kts 235°
2026-05-05 23:58 35.12095 -80.98185 4056 ft 256 kts 252°
2026-05-05 23:58 35.11680 -81.00305 4734 ft 258 kts 253°
2026-05-05 23:59 35.11267 -81.02456 5384 ft 261 kts 253°
2026-05-05 23:59 35.10852 -81.04621 6043 ft 262 kts 253°
2026-05-05 23:59 35.10435 -81.06793 6683 ft 264 kts 253°
2026-05-05 23:59 35.10012 -81.08981 7316 ft 265 kts 254°
2026-05-06 00:00 35.09585 -81.11172 7956 ft 266 kts 255°
2026-05-06 00:00 35.09154 -81.13373 8600 ft 267 kts 256°
2026-05-06 00:00 35.08725 -81.15578 9247 ft 267 kts 257°
2026-05-06 00:00 35.08293 -81.17795 9876 ft 269 kts 257°
2026-05-06 00:01 35.07857 -81.20033 10291 ft 278 kts 257°
2026-05-06 00:01 35.07395 -81.22402 10409 ft 296 kts 257°
2026-05-06 00:01 35.06904 -81.24921 10531 ft 313 kts 257°
2026-05-06 00:01 35.06387 -81.27568 10727 ft 327 kts 257°
2026-05-06 00:02 35.05860 -81.30250 11163 ft 331 kts 257°
2026-05-06 00:02 35.05318 -81.32994 11674 ft 334 kts 257°
2026-05-06 00:02 35.04773 -81.35759 12199 ft 336 kts 257°
2026-05-06 00:02 35.04225 -81.38537 12726 ft 338 kts 257°
2026-05-06 00:03 35.03670 -81.41336 13246 ft 340 kts 257°
2026-05-06 00:03 35.03112 -81.44155 13767 ft 343 kts 257°
2026-05-06 00:03 35.02550 -81.46995 14223 ft 345 kts 257°
2026-05-06 00:03 35.01982 -81.49856 14665 ft 348 kts 258°
2026-05-06 00:04 35.01409 -81.52736 15114 ft 351 kts 258°
2026-05-06 00:04 35.00832 -81.55637 15545 ft 353 kts 258°
2026-05-06 00:04 35.00245 -81.58560 15992 ft 356 kts 257°
2026-05-06 00:04 34.99415 -81.61420 16421 ft 360 kts 251°
2026-05-06 00:05 34.97540 -81.67135 17274 ft 366 kts 251°
2026-05-06 00:05 34.96594 -81.70025 17684 ft 368 kts 251°
2026-05-06 00:05 34.95642 -81.72933 18095 ft 371 kts 251°
2026-05-06 00:06 34.94681 -81.75863 18459 ft 373 kts 251°
2026-05-06 00:06 34.93714 -81.78809 18792 ft 375 kts 251°
2026-05-06 00:06 34.92576 -81.81688 19154 ft 380 kts 242°
2026-05-06 00:06 34.91100 -81.84384 19507 ft 383 kts 239°
2026-05-06 00:07 34.89595 -81.87075 19871 ft 385 kts 239°
2026-05-06 00:07 34.88106 -81.89736 20239 ft 386 kts 239°
2026-05-06 00:07 34.86592 -81.92449 20574 ft 387 kts 239°
2026-05-06 00:07 34.85073 -81.95169 20931 ft 389 kts 239°
2026-05-06 00:08 34.83548 -81.97902 21270 ft 391 kts 240°
2026-05-06 00:08 34.82017 -82.00640 21622 ft 392 kts 240°
2026-05-06 00:08 34.80483 -82.03388 21953 ft 394 kts 240°
2026-05-06 00:08 34.78942 -82.06149 22281 ft 395 kts 240°
2026-05-06 00:09 34.77393 -82.08923 22610 ft 397 kts 240°
2026-05-06 00:09 34.75833 -82.11711 22927 ft 399 kts 240°
2026-05-06 00:09 34.74265 -82.14502 23245 ft 401 kts 240°
2026-05-06 00:09 34.72687 -82.17306 23559 ft 402 kts 240°
2026-05-06 00:10 34.71104 -82.20118 23837 ft 404 kts 240°
2026-05-06 00:10 34.69514 -82.22944 24101 ft 406 kts 240°
2026-05-06 00:10 34.67920 -82.25779 24366 ft 407 kts 240°
2026-05-06 00:10 34.66317 -82.28629 24623 ft 409 kts 241°
2026-05-06 00:11 34.64710 -82.31483 24886 ft 410 kts 241°
2026-05-06 00:11 34.63094 -82.34350 25138 ft 412 kts 241°
2026-05-06 00:11 34.61493 -82.37191 25388 ft 413 kts 241°
2026-05-06 00:11 34.59866 -82.40074 25641 ft 415 kts 241°
2026-05-06 00:12 34.58233 -82.42965 25889 ft 416 kts 241°
2026-05-06 00:12 34.56591 -82.45867 26132 ft 418 kts 241°
2026-05-06 00:12 34.54941 -82.48780 26367 ft 419 kts 242°
2026-05-06 00:12 34.53285 -82.51699 26615 ft 421 kts 242°
2026-05-06 00:13 34.51624 -82.54627 26859 ft 422 kts 242°
2026-05-06 00:13 34.49956 -82.57567 27111 ft 423 kts 242°
2026-05-06 00:13 34.48286 -82.60511 27343 ft 425 kts 242°
2026-05-06 00:13 34.46609 -82.63463 27565 ft 426 kts 242°
2026-05-06 00:14 34.44918 -82.66431 27806 ft 428 kts 242°
2026-05-06 00:14 34.43224 -82.69397 28029 ft 429 kts 242°
2026-05-06 00:14 34.41521 -82.72376 28245 ft 430 kts 242°
2026-05-06 00:14 34.39816 -82.75360 28455 ft 432 kts 242°
2026-05-06 00:15 34.38107 -82.78352 28658 ft 433 kts 242°
2026-05-06 00:15 34.36391 -82.81355 28844 ft 434 kts 242°
2026-05-06 00:15 34.34672 -82.84366 29013 ft 435 kts 242°
2026-05-06 00:15 34.32947 -82.87385 29198 ft 436 kts 242°
2026-05-06 00:16 34.31219 -82.90399 29426 ft 436 kts 242°
2026-05-06 00:16 34.29492 -82.93399 29688 ft 435 kts 242°
2026-05-06 00:16 34.27763 -82.96397 29939 ft 434 kts 243°
2026-05-06 00:16 34.26063 -82.99347 30164 ft 433 kts 243°
2026-05-06 00:17 34.24340 -83.02338 30371 ft 432 kts 243°
2026-05-06 00:17 34.22623 -83.05315 30574 ft 432 kts 243°
2026-05-06 00:17 34.20910 -83.08290 30770 ft 431 kts 243°
2026-05-06 00:17 34.19201 -83.11260 30967 ft 430 kts 243°
2026-05-06 00:18 34.17492 -83.14225 31163 ft 430 kts 244°
2026-05-06 00:18 34.15780 -83.17186 31357 ft 429 kts 244°
2026-05-06 00:18 34.14068 -83.20140 31548 ft 429 kts 244°
2026-05-06 00:18 34.12356 -83.23087 31734 ft 428 kts 244°
2026-05-06 00:19 34.10649 -83.26026 31924 ft 428 kts 244°
2026-05-06 00:19 34.08940 -83.28963 32111 ft 427 kts 244°
2026-05-06 00:19 34.07233 -83.31899 32292 ft 427 kts 244°
2026-05-06 00:19 34.05532 -83.34828 32477 ft 426 kts 245°
2026-05-06 00:20 34.03835 -83.37748 32660 ft 425 kts 245°
2026-05-06 00:20 34.02137 -83.40669 32846 ft 425 kts 245°
2026-05-06 00:20 34.00442 -83.43581 33033 ft 424 kts 245°
2026-05-06 00:20 33.98748 -83.46489 33222 ft 423 kts 245°
2026-05-06 00:21 33.97058 -83.49384 33399 ft 422 kts 245°
2026-05-06 00:21 33.95367 -83.52283 33600 ft 422 kts 245°
2026-05-06 00:21 33.93683 -83.55167 33785 ft 421 kts 245°
2026-05-06 00:21 33.91999 -83.58046 33971 ft 420 kts 245°
2026-05-06 00:22 33.90884 -83.59947 34038 ft 420 kts 245°
2026-05-06 00:22 33.86948 -83.66641 34042 ft 418 kts 245°
2026-05-06 00:23 33.84148 -83.71384 34041 ft 418 kts 245°
2026-05-06 00:23 33.80743 -83.77065 34018 ft 419 kts 245°
2026-05-06 00:24 33.77328 -83.82736 34017 ft 419 kts 245°
2026-05-06 00:24 33.73909 -83.88403 34020 ft 419 kts 245°
2026-05-06 00:25 33.70490 -83.94074 34021 ft 419 kts 245°
2026-05-06 00:25 33.67073 -83.99741 34022 ft 419 kts 245°
2026-05-06 00:26 33.63650 -84.05401 34022 ft 419 kts 245°
2026-05-06 00:26 33.60224 -84.11048 34021 ft 418 kts 245°
2026-05-06 00:27 33.56802 -84.16690 34044 ft 418 kts 245°
2026-05-06 00:27 33.53378 -84.22331 34057 ft 418 kts 245°
2026-05-06 00:28 33.49981 -84.27923 34061 ft 417 kts 244°
2026-05-06 00:28 33.46553 -84.33538 34071 ft 417 kts 244°
2026-05-06 00:29 33.43124 -84.39150 34078 ft 417 kts 244°
2026-05-06 00:29 33.39707 -84.44745 34075 ft 416 kts 245°
2026-05-06 00:30 33.36295 -84.50334 34037 ft 416 kts 244°
2026-05-06 00:30 33.32874 -84.55900 34038 ft 415 kts 244°
2026-05-06 00:31 33.29451 -84.61465 34036 ft 415 kts 244°
2026-05-06 00:31 33.26030 -84.67009 34057 ft 414 kts 244°
2026-05-06 00:32 33.22620 -84.72548 34054 ft 413 kts 244°
2026-05-06 00:32 33.19226 -84.78080 34053 ft 413 kts 244°
2026-05-06 00:33 33.15818 -84.83595 34048 ft 412 kts 244°
2026-05-06 00:33 33.12410 -84.89086 34034 ft 412 kts 244°
2026-05-06 00:34 33.09005 -84.94578 34035 ft 411 kts 244°
2026-05-06 00:34 33.05607 -85.00050 34036 ft 410 kts 244°
2026-05-06 00:35 33.02219 -85.05522 34041 ft 410 kts 244°
2026-05-06 00:35 32.98843 -85.10937 34035 ft 410 kts 244°
2026-05-06 00:36 32.95422 -85.16410 34036 ft 409 kts 244°
2026-05-06 00:36 32.92053 -85.21811 34026 ft 408 kts 244°
2026-05-06 00:37 32.88667 -85.27239 34021 ft 408 kts 244°
2026-05-06 00:37 32.85273 -85.32656 34022 ft 408 kts 243°
2026-05-06 00:38 32.81878 -85.38058 34027 ft 407 kts 244°
2026-05-06 00:38 32.78493 -85.43452 34031 ft 407 kts 244°
2026-05-06 00:39 32.75107 -85.48844 34032 ft 407 kts 243°
2026-05-06 00:39 32.71728 -85.54226 34032 ft 406 kts 243°
2026-05-06 00:40 32.68341 -85.59593 34028 ft 406 kts 243°
2026-05-06 00:40 32.64958 -85.64960 34022 ft 406 kts 243°
2026-05-06 00:41 32.61561 -85.70319 34020 ft 406 kts 243°
2026-05-06 00:41 32.58198 -85.75631 34010 ft 406 kts 243°
2026-05-06 00:42 32.54806 -85.80976 33996 ft 405 kts 243°
2026-05-06 00:42 32.51422 -85.86316 33996 ft 405 kts 243°
2026-05-06 00:43 32.48025 -85.91647 33996 ft 405 kts 243°
2026-05-06 00:43 32.44629 -85.96972 33987 ft 405 kts 243°
2026-05-06 00:44 32.41241 -86.02297 33990 ft 405 kts 243°
2026-05-06 00:44 32.37853 -86.07614 33979 ft 405 kts 243°
2026-05-06 00:45 32.34455 -86.12922 33974 ft 405 kts 242°
2026-05-06 00:45 32.31044 -86.18222 33970 ft 405 kts 242°
2026-05-06 00:46 32.27650 -86.23522 34008 ft 404 kts 242°
2026-05-06 00:46 32.24250 -86.28817 34003 ft 404 kts 242°
2026-05-06 00:47 32.20797 -86.34072 34001 ft 407 kts 240°
2026-05-06 00:47 32.17103 -86.39163 33996 ft 409 kts 238°
2026-05-06 00:48 32.13323 -86.44197 33985 ft 409 kts 238°
2026-05-06 00:48 32.09588 -86.49255 33965 ft 408 kts 239°
2026-05-06 00:49 32.05878 -86.54326 33959 ft 409 kts 239°
2026-05-06 00:49 32.02166 -86.59400 33965 ft 409 kts 238°
2026-05-06 00:50 31.98438 -86.64467 33980 ft 409 kts 238°
2026-05-06 00:50 31.94714 -86.69529 33987 ft 409 kts 238°
2026-05-06 00:51 31.90994 -86.74592 33981 ft 409 kts 238°
2026-05-06 00:51 31.87259 -86.79654 33973 ft 410 kts 238°
2026-05-06 00:52 31.83543 -86.84683 33955 ft 410 kts 238°
2026-05-06 00:52 31.79799 -86.89746 33946 ft 410 kts 238°
2026-05-06 00:53 31.76059 -86.94806 33938 ft 410 kts 238°
2026-05-06 00:53 31.72302 -86.99860 33944 ft 411 kts 238°
2026-05-06 00:54 31.68541 -87.04919 33965 ft 411 kts 238°
2026-05-06 00:54 31.64784 -87.09984 33980 ft 411 kts 238°
2026-05-06 00:55 31.61021 -87.15038 33995 ft 411 kts 238°
2026-05-06 00:55 31.57249 -87.20099 33996 ft 412 kts 238°
2026-05-06 00:56 31.53478 -87.25154 33998 ft 412 kts 238°
2026-05-06 00:56 31.49703 -87.30211 33998 ft 412 kts 238°
2026-05-06 00:57 31.45947 -87.35233 34001 ft 412 kts 238°
2026-05-06 00:57 31.42217 -87.40324 33999 ft 411 kts 239°
2026-05-06 00:58 31.38548 -87.45466 33999 ft 411 kts 239°
2026-05-06 00:58 31.34878 -87.50601 33997 ft 411 kts 239°
2026-05-06 00:59 31.31185 -87.55716 34002 ft 412 kts 238°
2026-05-06 00:59 31.27482 -87.60822 34004 ft 411 kts 238°
2026-05-06 01:00 31.23786 -87.65925 34008 ft 411 kts 238°
2026-05-06 01:00 31.20088 -87.71022 34012 ft 411 kts 238°
2026-05-06 01:01 31.16392 -87.76111 34011 ft 410 kts 238°
2026-05-06 01:01 31.12698 -87.81196 34009 ft 410 kts 238°
2026-05-06 01:02 31.09005 -87.86275 34010 ft 410 kts 238°
2026-05-06 01:02 31.05312 -87.91344 34017 ft 410 kts 238°
2026-05-06 01:03 31.01619 -87.96403 34015 ft 410 kts 238°
2026-05-06 01:03 30.97945 -88.01428 34014 ft 410 kts 238°
2026-05-06 01:04 30.94249 -88.06478 34012 ft 410 kts 238°
2026-05-06 01:04 30.90550 -88.11525 34026 ft 409 kts 238°
2026-05-06 01:05 30.86848 -88.16573 34031 ft 409 kts 238°
2026-05-06 01:05 30.83147 -88.21605 34032 ft 409 kts 238°
2026-05-06 01:06 30.79445 -88.26628 34036 ft 409 kts 238°
2026-05-06 01:06 30.75743 -88.31657 34034 ft 409 kts 238°
2026-05-06 01:07 30.72252 -88.36801 34031 ft 399 kts 246°
2026-05-06 01:07 30.70931 -88.39626 33316 ft 399 kts 249°
2026-05-06 01:07 30.69650 -88.42515 32395 ft 404 kts 249°
2026-05-06 01:07 30.68378 -88.45420 31773 ft 402 kts 249°
2026-05-06 01:08 30.67119 -88.48294 31330 ft 396 kts 249°
2026-05-06 01:08 30.66292 -88.50172 31031 ft 393 kts 249°
2026-05-06 01:08 30.65050 -88.52986 30589 ft 389 kts 249°
2026-05-06 01:08 30.63825 -88.55760 30160 ft 384 kts 249°
2026-05-06 01:09 30.62221 -88.59381 29538 ft 377 kts 249°
2026-05-06 01:09 30.61415 -88.61194 29255 ft 373 kts 249°
2026-05-06 01:09 30.60235 -88.63845 28841 ft 366 kts 249°
2026-05-06 01:09 30.58703 -88.67291 28305 ft 359 kts 249°
2026-05-06 01:10 30.57568 -88.69845 27915 ft 353 kts 249°
2026-05-06 01:10 30.56810 -88.71550 27656 ft 350 kts 249°
2026-05-06 01:10 30.55704 -88.74038 27279 ft 345 kts 250°
2026-05-06 01:10 30.54611 -88.76490 26890 ft 340 kts 250°
2026-05-06 01:11 30.53532 -88.78907 26526 ft 335 kts 250°
2026-05-06 01:11 30.52469 -88.81293 26169 ft 330 kts 250°
2026-05-06 01:11 30.51422 -88.83644 25828 ft 328 kts 250°
2026-05-06 01:11 30.50379 -88.85989 25486 ft 327 kts 250°
2026-05-06 01:12 30.49337 -88.88326 25154 ft 326 kts 250°
2026-05-06 01:12 30.48296 -88.90654 24815 ft 324 kts 250°
2026-05-06 01:12 30.47259 -88.92974 24477 ft 323 kts 250°
2026-05-06 01:12 30.46227 -88.95282 24138 ft 322 kts 250°
2026-05-06 01:13 30.45212 -88.97552 23792 ft 321 kts 250°
2026-05-06 01:13 30.44183 -88.99853 23433 ft 320 kts 250°
2026-05-06 01:13 30.43160 -89.02133 23054 ft 319 kts 250°
2026-05-06 01:13 30.42139 -89.04404 22711 ft 317 kts 250°
2026-05-06 01:14 30.40152 -89.08916 21972 ft 311 kts 252°
2026-05-06 01:14 30.39274 -89.11191 21572 ft 307 kts 253°
2026-05-06 01:14 30.38453 -89.13462 21179 ft 305 kts 254°
2026-05-06 01:15 30.37652 -89.15725 20779 ft 303 kts 254°
2026-05-06 01:15 30.36851 -89.17970 20384 ft 301 kts 254°
2026-05-06 01:15 30.36046 -89.20202 19990 ft 299 kts 253°
2026-05-06 01:15 30.35235 -89.22418 19600 ft 298 kts 253°
2026-05-06 01:16 30.34424 -89.24617 19207 ft 296 kts 253°
2026-05-06 01:16 30.33617 -89.26802 18819 ft 295 kts 253°
2026-05-06 01:16 30.32836 -89.28910 18439 ft 293 kts 252°
2026-05-06 01:16 30.32010 -89.31146 18029 ft 292 kts 252°
2026-05-06 01:17 30.31216 -89.33307 17633 ft 291 kts 252°
2026-05-06 01:17 30.30420 -89.35465 17245 ft 291 kts 252°
2026-05-06 01:17 30.29622 -89.37613 16867 ft 291 kts 252°
2026-05-06 01:17 30.28824 -89.39765 16473 ft 291 kts 251°
2026-05-06 01:18 30.28026 -89.41914 16083 ft 291 kts 251°
2026-05-06 01:18 30.27228 -89.44065 15695 ft 291 kts 251°
2026-05-06 01:18 30.26442 -89.46184 15318 ft 290 kts 251°
2026-05-06 01:18 30.25643 -89.48333 14932 ft 290 kts 250°
2026-05-06 01:19 30.24845 -89.50478 14548 ft 290 kts 250°
2026-05-06 01:19 30.24047 -89.52624 14162 ft 290 kts 250°
2026-05-06 01:19 30.23244 -89.54772 13782 ft 291 kts 250°
2026-05-06 01:19 30.22441 -89.56919 13366 ft 290 kts 250°
2026-05-06 01:20 30.21643 -89.59052 12985 ft 289 kts 249°
2026-05-06 01:20 30.20850 -89.61176 12607 ft 287 kts 249°
2026-05-06 01:20 30.20061 -89.63288 12237 ft 285 kts 249°
2026-05-06 01:20 30.19275 -89.65392 11846 ft 285 kts 249°
2026-05-06 01:21 30.18494 -89.67495 11432 ft 284 kts 249°
2026-05-06 01:21 30.17714 -89.69582 11160 ft 280 kts 249°
2026-05-06 01:21 30.16948 -89.71687 11034 ft 292 kts 253°
2026-05-06 01:21 30.16749 -89.73982 10995 ft 284 kts 279°
2026-05-06 01:22 30.17248 -89.76184 11013 ft 283 kts 287°
2026-05-06 01:22 30.17872 -89.78344 10983 ft 282 kts 288°
2026-05-06 01:22 30.18505 -89.80479 10648 ft 280 kts 288°
2026-05-06 01:22 30.19142 -89.82605 10261 ft 279 kts 288°
2026-05-06 01:23 30.19779 -89.84719 9884 ft 278 kts 288°
2026-05-06 01:23 30.20411 -89.86796 9494 ft 277 kts 288°
2026-05-06 01:23 30.21059 -89.88892 9091 ft 276 kts 288°
2026-05-06 01:23 30.21712 -89.90974 8710 ft 275 kts 288°
2026-05-06 01:24 30.22371 -89.93045 8308 ft 274 kts 288°
2026-05-06 01:24 30.23033 -89.95107 7932 ft 273 kts 288°
2026-05-06 01:24 30.23701 -89.97156 7549 ft 272 kts 288°
2026-05-06 01:24 30.24377 -89.99198 7181 ft 271 kts 288°
2026-05-06 01:25 30.25063 -90.01229 6815 ft 271 kts 288°
2026-05-06 01:25 30.25753 -90.03250 6462 ft 270 kts 288°
2026-05-06 01:25 30.26448 -90.05266 6092 ft 269 kts 288°
2026-05-06 01:25 30.27135 -90.07266 5746 ft 267 kts 288°
2026-05-06 01:26 30.27814 -90.09257 5369 ft 266 kts 288°
2026-05-06 01:26 30.28489 -90.11244 4996 ft 265 kts 288°
2026-05-06 01:26 30.29155 -90.13220 4631 ft 263 kts 288°
2026-05-06 01:26 30.29820 -90.15191 4247 ft 263 kts 288°
2026-05-06 01:27 30.30496 -90.17163 3856 ft 263 kts 288°
2026-05-06 01:27 30.31182 -90.19133 3465 ft 264 kts 288°
2026-05-06 01:27 30.31876 -90.21102 3089 ft 264 kts 288°
2026-05-06 01:27 30.32571 -90.23057 2996 ft 263 kts 288°
2026-05-06 01:28 30.32942 -90.25102 2994 ft 259 kts 266°
2026-05-06 01:28 30.32582 -90.27109 2999 ft 253 kts 242°
2026-05-06 01:28 30.31561 -90.28724 2997 ft 248 kts 219°
2026-05-06 01:28 30.30095 -90.29699 3000 ft 248 kts 199°
2026-05-06 01:29 30.28454 -90.30329 2998 ft 249 kts 198°
2026-05-06 01:29 30.26815 -90.30958 2996 ft 248 kts 198°
2026-05-06 01:29 30.25180 -90.31585 3003 ft 247 kts 198°
2026-05-06 01:29 30.23545 -90.32212 3003 ft 248 kts 198°
2026-05-06 01:30 30.21910 -90.32841 3005 ft 248 kts 199°
2026-05-06 01:30 30.20268 -90.33472 3006 ft 248 kts 199°
2026-05-06 01:30 30.18627 -90.34104 3004 ft 248 kts 199°
2026-05-06 01:30 30.16982 -90.34735 3006 ft 249 kts 199°
2026-05-06 01:31 30.15335 -90.35365 3007 ft 249 kts 198°
2026-05-06 01:31 30.13689 -90.35995 3006 ft 250 kts 199°
2026-05-06 01:31 30.12044 -90.36624 2962 ft 249 kts 198°
2026-05-06 01:31 30.10420 -90.37243 2836 ft 240 kts 198°
2026-05-06 01:32 30.08866 -90.37834 2712 ft 229 kts 198°
2026-05-06 01:32 30.07407 -90.38391 2613 ft 216 kts 198°
2026-05-06 01:32 30.06027 -90.38919 2484 ft 203 kts 198°
2026-05-06 01:32 30.04695 -90.39419 2320 ft 198 kts 195°
2026-05-06 01:33 30.03388 -90.39396 2178 ft 184 kts 165°
2026-05-06 01:33 30.02367 -90.38594 2039 ft 178 kts 136°
2026-05-06 01:33 30.01837 -90.37279 1683 ft 187 kts 113°
2026-05-06 01:33 30.01500 -90.35845 1346 ft 180 kts 110°
2026-05-06 01:34 30.01189 -90.34522 1093 ft 162 kts 111°
2026-05-06 01:34 30.00901 -90.33317 894 ft 152 kts 112°
2026-05-06 01:34 30.00619 -90.32149 703 ft 149 kts 109°
2026-05-06 01:34 30.00345 -90.31011 528 ft 146 kts 112°
2026-05-06 01:35 30.00075 -90.29887 331 ft 145 kts 107°
2026-05-06 01:35 29.99809 -90.28774 151 ft 145 kts 106°
2026-05-06 01:35 29.99542 -90.27665 3 ft 139 kts 108°
2026-05-06 01:35 29.99323 -90.26760 10 ft 93 kts 105°
2026-05-06 01:36 29.99192 -90.26219 5 ft 52 kts 105°
2026-05-06 01:36 29.99110 -90.25881 8 ft 38 kts 105°
2026-05-06 01:36 29.99068 -90.25696 7 ft 11 kts 97°
2026-05-06 01:36 29.99123 -90.25639 6 ft 12 kts 17°
2026-05-06 01:37 29.99182 -90.25627 5 ft 3 kts 341°
2026-05-06 01:37 29.99198 -90.25652 5 ft 5 kts 293°
2026-05-06 01:37 29.99212 -90.25684 5 ft 0 kts 312°
2026-05-06 01:38 29.99213 -90.25685 4 ft 2 kts 313°
2026-05-06 01:38 29.99239 -90.25696 4 ft 5 kts 350°
2026-05-06 01:38 29.99272 -90.25701 6 ft 4 kts 354°
2026-05-06 01:39 29.99296 -90.25704 6 ft 1 kts 354°
2026-05-06 01:39 29.99299 -90.25704 6 ft 0 kts 355°